N4MGC Weather Reports


time (UTC)temp
C
wind
direction
speed
KPH
gust
KPH
rain 1hr
cm
rain 24hr
cm
rain mn
cm
humidity
%
barometer
mb
20260510212841 29 55 0.0 0.0 0.00 0.00 0.00 40 1016.1
20260510212338 30 55 0.0 0.0 0.00 0.00 0.00 41 1015.9
20260510211836 30 55 0.0 0.0 0.00 0.00 0.00 43 1016.0
20260510211332 28 54 0.0 0.0 0.00 0.00 0.00 43 1015.9
20260510210827 29 295 0.0 0.0 0.00 0.00 0.00 44 1016.1
20260510210322 28 39 1.6 1.6 0.00 0.00 0.00 45 1016.0
20260510205822 28 73 0.0 0.0 0.00 0.00 0.00 45 1016.0
20260510205317 28 73 0.0 0.0 0.00 0.00 0.00 50 1016.1
20260510204814 28 73 0.0 0.0 0.00 0.00 0.00 50 1016.1
20260510204310 28 73 0.0 0.0 0.00 0.00 0.00 49 1016.1
20260510203807 28 73 0.0 0.0 0.00 0.00 0.00 45 1016.2
20260510203305 30 67 0.0 0.0 0.00 0.00 0.00 52 1016.0
20260510202804 28 55 0.0 0.0 0.00 0.00 0.00 44 1016.0
20260510202300 29 58 0.0 0.0 0.00 0.00 0.00 48 1016.3
20260510201757 29 45 0.0 3.2 0.00 0.00 0.00 44 1016.2
20260510201254 28 47 0.0 0.0 0.00 0.00 0.00 48 1016.3
20260510200751 29 283 0.0 0.0 0.00 0.00 0.00 47 1016.2
20260510200248 29 283 0.0 0.0 0.00 0.00 0.00 44 1016.2
20260510195745 28 65 0.0 0.0 0.00 0.00 0.00 43 1016.3
20260510195242 27 65 0.0 0.0 0.00 0.00 0.00 47 1016.1
20260510194740 27 65 0.0 0.0 0.00 0.00 0.00 49 1016.1
20260510194238 28 18 1.6 3.2 0.00 0.00 0.00 50 1016.5
20260510193734 27 33 0.0 0.0 0.00 0.00 0.00 49 1016.4
20260510193228 27 254 0.0 0.0 0.00 0.00 0.00 48 1016.3
20260510192724 28 59 0.0 0.0 0.00 0.00 0.00 51 1016.5
20260510192220 28 345 0.0 1.6 0.00 0.00 0.00 50 1016.6
20260510191716 27 276 0.0 0.0 0.00 0.00 0.00 50 1016.4
20260510191213 27 114 0.0 0.0 0.00 0.00 0.00 57 1016.7
20260510190710 28 67 0.0 0.0 0.00 0.00 0.00 50 1016.7
20260510190207 28 270 0.0 0.0 0.00 0.00 0.00 53 1016.6
20260510185704 27 13 0.0 0.0 0.00 0.00 0.00 50 1016.7
20260510185202 26 13 0.0 0.0 0.00 0.00 0.00 52 1016.6
20260510184658 26 13 0.0 0.0 0.00 0.00 0.00 55 1016.7
20260510184155 27 52 1.6 3.2 0.00 0.00 0.00 54 1016.7
20260510183650 27 261 0.0 1.6 0.00 0.00 0.00 54 1016.7
20260510183145 26 250 0.0 0.0 0.00 0.00 0.00 55 1016.8
20260510182642 26 189 0.0 0.0 0.00 0.00 0.00 56 1016.9
20260510182137 26 298 0.0 0.0 0.00 0.00 0.00 56 1016.8
20260510181635 26 76 0.0 0.0 0.00 0.00 0.00 61 1016.9
20260510181131 26 104 0.0 0.0 0.00 0.00 0.00 58 1016.9
20260510180627 27 43 0.0 0.0 0.00 0.00 0.00 57 1017.2
20260510180125 27 301 0.0 0.0 0.00 0.00 0.00 63 1017.0
20260510175621 26 53 0.0 0.0 0.00 0.00 0.00 60 1016.8
20260510175116 26 63 0.0 0.0 0.00 0.00 0.00 59 1017.2
20260510174615 26 47 0.0 0.0 0.00 0.00 0.00 57 1017.2
20260510174112 26 31 0.0 0.0 0.00 0.00 0.00 55 1017.2
20260510173607 26 94 0.0 0.0 0.00 0.00 0.00 61 1017.2
20260510173104 26 77 0.0 0.0 0.00 0.00 0.00 63 1017.3
20260510172559 26 65 4.8 8.0 0.00 0.00 0.00 62 1017.4
20260510172056 26 51 3.2 8.0 0.00 0.00 0.00 65 1017.4
20260510171553 25 41 0.0 0.0 0.00 0.00 0.00 69 1017.5
20260510171050 24 8 0.0 0.0 0.00 0.00 0.00 68 1017.6
20260510170546 25 67 0.0 0.0 0.00 0.00 0.00 68 1017.6
20260510170043 25 187 0.0 0.0 0.00 0.00 0.00 72 1017.4
20260510165539 25 189 0.0 0.0 0.00 0.00 0.00 70 1017.5
20260510165035 25 190 0.0 0.0 0.00 0.00 0.00 72 1017.8
20260510164532 25 240 0.0 0.0 0.00 0.00 0.00 78 1017.7
20260510164028 25 337 0.0 0.0 0.00 0.00 0.00 74 1017.8
20260510163518 25 351 0.0 0.0 0.00 0.00 0.00 74 1017.8
20260510163015 25 24 0.0 0.0 0.00 0.00 0.00 69 1017.9
20260510162510 25 74 0.0 0.0 0.00 0.00 0.00 74 1017.8
20260510162007 25 68 0.0 0.0 0.00 0.00 0.00 73 1017.9
20260510161503 25 67 0.0 0.0 0.00 0.00 0.00 72 1018.0
20260510160959 24 291 0.0 0.0 0.00 0.00 0.00 77 1017.7
20260510160451 23 24 0.0 0.0 0.00 0.00 0.00 76 1018.0
20260510155949 23 269 0.0 1.6 0.00 0.00 0.00 79 1017.8
20260510155447 23 219 0.0 0.0 0.00 0.00 0.00 77 1018.0
20260510154943 23 272 1.6 3.2 0.00 0.00 0.00 77 1018.1
20260510154439 23 54 0.0 0.0 0.00 0.00 0.00 76 1017.8
20260510153938 23 59 0.0 0.0 0.00 0.00 0.00 75 1017.8
20260510153435 22 15 0.0 0.0 0.00 0.00 0.00 80 1018.0
20260510152931 21 65 0.0 0.0 0.00 0.00 0.00 83 1017.7
20260510152429 21 163 0.0 0.0 0.00 0.00 0.00 86 1017.7
20260510151925 21 238 0.0 0.0 0.00 0.00 0.00 84 1017.8
20260510151422 23 89 0.0 0.0 0.00 0.00 0.00 80 1018.0
20260510150918 23 87 0.0 0.0 0.00 0.00 0.00 78 1017.9
20260510150415 22 9 0.0 0.0 0.00 0.00 0.00 82 1017.5
20260510145910 22 117 0.0 0.0 0.00 0.00 0.00 82 1017.7
20260510145407 22 35 0.0 0.0 0.00 0.00 0.00 83 1017.8
20260510144903 21 146 0.0 0.0 0.00 0.00 0.00 88 1017.9
20260510144401 21 86 0.0 0.0 0.00 0.00 0.00 86 1017.8
20260510143855 21 82 0.0 0.0 0.00 0.00 0.00 87 1018.0
20260510143351 20 94 0.0 0.0 0.00 0.00 0.00 91 1017.8
20260510142849 20 73 0.0 0.0 0.00 0.00 0.00 92 1018.1
20260510142345 20 92 0.0 0.0 0.00 0.00 0.00 91 1018.0
20260510141842 20 85 0.0 0.0 0.00 0.00 0.00 92 1018.2
20260510141339 20 91 0.0 0.0 0.00 0.00 0.00 93 1018.2
20260510140836 20 150 0.0 0.0 0.00 0.00 0.00 94 1018.3
20260510140332 20 133 0.0 0.0 0.00 0.00 0.00 94 1018.1
20260510135825 20 87 0.0 0.0 0.00 0.00 0.00 94 1018.1
20260510135321 20 149 0.0 0.0 0.00 0.00 0.00 95 1018.1
20260510134819 19 111 0.0 0.0 0.00 0.00 0.00 96 1017.9
20260510134316 19 114 0.0 0.0 0.00 0.00 0.00 96 1018.0
20260510133812 19 90 0.0 0.0 0.00 0.00 0.00 97 1017.9
20260510133308 18 90 0.0 0.0 0.00 0.00 0.00 98 1017.6
20260510132803 18 88 0.0 0.0 0.00 0.00 0.00 98 1017.7
20260510132305 18 82 0.0 0.0 0.00 0.00 0.00 99 1017.7
20260510131758 18 83 0.0 0.0 0.00 0.00 0.00 99 1017.7
20260510131256 18 82 0.0 0.0 0.00 0.00 0.00 99 1017.8
20260510130752 18 102 0.0 0.0 0.00 0.00 0.00 99 1017.6
20260510130250 18 86 0.0 0.0 0.00 0.00 0.00 99 1017.6
20260510125746 18 86 0.0 0.0 0.00 0.00 0.00 99 1017.6
20260510125242 18 85 0.0 0.0 0.00 0.00 0.00 99 1017.5
20260510124739 18 82 0.0 0.0 0.00 0.00 0.00 99 1017.3
20260510124237 18 79 0.0 0.0 0.00 0.00 0.00 99 1017.3
20260510123732 17 87 0.0 0.0 0.00 0.00 0.00 99 1017.3
20260510123228 18 86 0.0 0.0 0.00 0.00 0.00 99 1017.3
20260510122724 18 85 0.0 0.0 0.00 0.00 0.00 99 1017.1
20260510122221 17 82 0.0 0.0 0.00 0.00 0.00 99 1017.0
20260510121717 17 76 0.0 0.0 0.00 0.00 0.00 99 1017.0
20260510121215 17 83 0.0 0.0 0.00 0.00 0.00 99 1016.9
20260510120712 17 91 0.0 0.0 0.00 0.00 0.00 99 1016.9
20260510120208 17 84 0.0 0.0 0.00 0.00 0.00 99 1016.7
20260510115704 17 79 0.0 0.0 0.00 0.00 0.00 99 1016.8
20260510115202 17 86 0.0 0.0 0.00 0.00 0.00 99 1016.6
20260510114657 17 99 0.0 0.0 0.00 0.00 0.00 99 1016.4
20260510114154 17 91 0.0 0.0 0.00 0.00 0.00 99 1016.2
20260510113649 17 90 0.0 0.0 0.00 0.00 0.00 99 1016.1
20260510113147 17 83 0.0 0.0 0.00 0.00 0.00 99 1015.9
20260510112643 17 93 0.0 0.0 0.00 0.00 0.00 99 1015.9
20260510112140 17 94 0.0 0.0 0.00 0.00 0.00 99 1015.8
20260510111636 17 93 0.0 0.0 0.00 0.00 0.00 99 1015.6
20260510111132 17 93 0.0 0.0 0.00 0.00 0.00 99 1015.6
20260510110628 17 92 0.0 0.0 0.00 0.00 0.00 99 1015.2
20260510110125 17 91 0.0 0.0 0.00 0.00 0.00 99 1015.4
20260510105621 17 94 0.0 0.0 0.00 0.00 0.00 99 1015.4
20260510105115 17 93 0.0 0.0 0.00 0.00 0.00 99 1015.3
20260510104612 17 94 0.0 0.0 0.00 0.00 0.00 99 1015.3
20260510104109 17 94 0.0 0.0 0.00 0.00 0.00 99 1015.2
20260510103606 17 93 0.0 0.0 0.00 0.00 0.00 99 1014.9
20260510103102 17 93 0.0 0.0 0.00 0.00 0.00 99 1014.8
20260510102557 17 93 0.0 0.0 0.00 0.00 0.00 99 1015.0
20260510102054 17 92 0.0 0.0 0.00 0.00 0.00 99 1014.7
20260510101551 17 92 0.0 0.0 0.00 0.00 0.00 99 1014.6
20260510101050 17 92 0.0 0.0 0.00 0.00 0.00 99 1014.7
20260510100545 17 88 0.0 0.0 0.00 0.00 0.00 99 1014.8
20260510100043 17 90 0.0 0.0 0.00 0.00 0.00 99 1014.7
20260510095539 17 94 0.0 0.0 0.00 0.00 0.00 99 1014.7
20260510095038 17 90 0.0 0.0 0.00 0.00 0.00 99 1014.7
20260510094533 17 92 0.0 0.0 0.00 0.00 0.00 99 1014.7
20260510094029 17 93 0.0 0.0 0.00 0.00 0.00 99 1014.7
20260510093524 18 94 0.0 0.0 0.00 0.00 0.00 99 1014.5
20260510093022 18 90 0.0 0.0 0.00 0.00 0.00 99 1014.3
20260510092519 18 93 0.0 0.0 0.00 0.00 0.00 99 1014.7
20260510092018 18 91 0.0 0.0 0.00 0.00 0.00 99 1014.7
20260510091515 18 94 0.0 0.0 0.00 0.00 0.00 99 1014.4
20260510091011 18 80 0.0 0.0 0.00 0.00 0.00 99 1014.5
20260510090508 18 104 0.0 0.0 0.00 0.00 0.00 99 1014.4
20260510090004 18 104 0.0 0.0 0.00 0.00 0.00 99 1014.6
20260510085459 18 100 0.0 0.0 0.00 0.00 0.00 99 1014.2
20260510084955 18 99 0.0 0.0 0.00 0.00 0.00 99 1014.3
20260510084452 17 104 0.0 0.0 0.00 0.00 0.00 99 1014.1
20260510083949 18 116 0.0 0.0 0.00 0.00 0.00 99 1014.0
20260510083445 17 116 0.0 0.0 0.00 0.00 0.00 99 1013.9
20260510082940 18 117 0.0 0.0 0.00 0.00 0.00 99 1013.9
20260510082439 18 93 0.0 0.0 0.00 0.00 0.00 99 1013.9
20260510081938 18 89 0.0 0.0 0.00 0.00 0.00 99 1014.2
20260510081434 18 86 0.0 0.0 0.00 0.00 0.00 99 1013.9
20260510080930 18 96 0.0 0.0 0.00 0.00 0.00 99 1013.9
20260510080428 18 103 0.0 0.0 0.00 0.00 0.00 99 1013.8
20260510075926 18 112 0.0 0.0 0.00 0.00 0.00 99 1013.7
20260510075424 18 112 0.0 0.0 0.00 0.00 0.00 99 1013.7
20260510074920 18 112 0.0 0.0 0.00 0.00 0.00 99 1013.6
20260510074417 18 112 0.0 0.0 0.00 0.00 0.00 99 1013.7
20260510073914 18 112 0.0 0.0 0.00 0.00 0.00 99 1013.5
20260510073409 18 112 0.0 0.0 0.00 0.00 0.00 99 1013.6
20260510072906 18 112 0.0 0.0 0.00 0.00 0.00 99 1013.5
20260510072403 18 97 0.0 0.0 0.00 0.00 0.00 99 1013.6
20260510071858 18 99 0.0 0.0 0.00 0.00 0.00 99 1013.5
20260510071355 18 127 0.0 0.0 0.00 0.00 0.00 99 1013.7
20260510070854 18 120 0.0 0.0 0.00 0.00 0.00 99 1013.7
20260510070350 18 119 0.0 0.0 0.00 0.00 0.00 99 1013.6
20260510065850 18 119 0.0 0.0 0.00 0.00 0.00 99 1013.7
20260510065347 18 122 0.0 0.0 0.00 0.00 0.00 99 1013.8
20260510064844 18 120 0.0 0.0 0.00 0.00 0.00 99 1013.5
20260510064342 18 120 0.0 0.0 0.00 0.00 0.00 99 1013.6
20260510063838 18 120 0.0 0.0 0.00 0.00 0.00 99 1013.8
20260510063334 18 123 0.0 0.0 0.00 0.00 0.00 99 1013.8
20260510062831 18 151 0.0 0.0 0.00 0.00 0.00 99 1013.7
20260510062327 18 76 0.0 0.0 0.00 0.00 0.00 99 1014.0
20260510061822 18 105 0.0 0.0 0.00 0.00 0.00 99 1013.9
20260510061319 18 112 0.0 0.0 0.00 0.00 0.00 99 1013.9
20260510060815 18 105 0.0 0.0 0.00 0.00 0.00 99 1014.1
20260510060313 17 147 0.0 0.0 0.00 0.00 0.00 99 1014.1
20260510055809 17 134 0.0 0.0 0.00 0.00 0.00 99 1014.0
20260510055308 17 123 0.0 0.0 0.00 0.00 0.00 99 1014.2
20260510054807 18 122 0.0 0.0 0.00 0.00 0.00 99 1014.1
20260510054303 18 122 0.0 0.0 0.00 0.00 0.00 99 1014.2
20260510053758 17 122 0.0 0.0 0.00 0.00 0.00 99 1014.0
20260510053254 17 122 0.0 0.0 0.00 0.00 0.00 99 1014.3
20260510052750 17 123 0.0 0.0 0.00 0.00 0.00 99 1014.2
20260510052246 17 122 0.0 0.0 0.00 0.00 0.00 99 1014.3
20260510051742 17 122 0.0 0.0 0.00 0.00 0.00 99 1014.1
20260510051239 17 122 0.0 0.0 0.00 0.00 0.00 99 1014.1
20260510050736 17 122 0.0 0.0 0.00 0.00 0.00 99 1014.3
20260510050233 17 122 0.0 0.0 0.00 0.00 0.00 99 1014.1
20260510045730 17 122 0.0 0.0 0.00 0.00 0.00 99 1014.0
20260510045226 17 126 0.0 0.0 0.00 0.00 0.00 99 1014.3
20260510044723 17 126 0.0 0.0 0.00 0.00 0.00 99 1014.2
20260510044221 17 112 0.0 0.0 0.00 0.00 0.00 99 1014.3
20260510043716 17 112 0.0 0.0 0.00 0.00 0.00 99 1014.4
20260510043213 17 112 0.0 0.0 0.00 0.00 0.00 99 1014.2
20260510042710 17 112 0.0 0.0 0.00 0.00 0.00 99 1014.2
20260510042206 17 112 0.0 0.0 0.00 0.00 0.00 99 1014.4
20260510041703 17 112 0.0 0.0 0.00 0.00 0.00 99 1014.3
20260510041201 17 112 0.0 0.0 0.00 0.00 0.00 99 1014.2
20260510040657 17 112 0.0 0.0 0.00 0.00 0.00 99 1014.3
20260510040154 17 111 0.0 0.0 0.00 0.00 0.00 99 1014.5
20260510035649 17 112 0.0 0.0 0.00 0.00 0.00 99 1014.5
20260510035145 17 111 0.0 0.0 0.00 0.00 0.00 99 1014.2
20260510034642 17 111 0.0 0.0 0.00 0.00 0.00 99 1014.5
20260510034139 16 111 0.0 0.0 0.00 0.00 0.00 99 1014.5
20260510033635 17 111 0.0 0.0 0.00 0.00 0.00 99 1014.3
20260510033133 17 112 0.0 0.0 0.00 0.00 0.00 99 1014.5
20260510032630 17 112 0.0 0.0 0.00 0.00 0.00 99 1014.5
20260510032125 17 112 0.0 0.0 0.00 0.00 0.00 99 1014.5
20260510031620 17 112 0.0 0.0 0.00 0.00 0.00 99 1014.3
20260510031117 17 111 0.0 0.0 0.00 0.00 0.00 99 1014.5
20260510030611 17 112 0.0 0.0 0.00 0.00 0.00 99 1014.4
20260510030109 17 112 0.0 0.0 0.00 0.00 0.00 99 1014.2
20260510025606 17 112 0.0 0.0 0.00 0.00 0.00 99 1014.0
20260510025104 17 122 0.0 0.0 0.00 0.00 0.00 99 1014.1
20260510024600 17 122 0.0 0.0 0.00 0.00 0.00 99 1014.1
20260510024057 17 122 0.0 0.0 0.00 0.00 0.00 99 1014.1
20260510023553 17 123 0.0 0.0 0.00 0.00 0.00 99 1014.0
20260510023050 17 113 0.0 0.0 0.00 0.00 0.00 99 1013.9
20260510022549 17 113 0.0 0.0 0.00 0.00 0.00 99 1013.8
20260510022044 17 113 0.0 0.0 0.00 0.00 0.00 99 1013.7
20260510021541 17 113 0.0 0.0 0.00 0.00 0.00 99 1013.8
20260510021038 17 112 0.0 0.0 0.00 0.00 0.00 99 1013.4
20260510020532 17 112 0.0 0.0 0.00 0.00 0.00 99 1013.7
20260510020028 17 112 0.0 0.0 0.00 0.00 0.00 98 1013.4
20260510015524 18 112 0.0 0.0 0.00 0.00 0.00 98 1013.1
20260510015020 18 112 0.0 0.0 0.00 0.00 0.00 98 1013.4
20260510014517 18 112 0.0 0.0 0.00 0.00 0.00 98 1013.3
20260510014014 18 112 0.0 0.0 0.00 0.00 0.00 98 1013.1
20260510013509 18 112 0.0 0.0 0.00 0.00 0.00 98 1012.8
20260510013004 18 112 0.0 0.0 0.00 0.00 0.00 98 1012.7
20260510012459 18 113 0.0 0.0 0.00 0.00 0.00 98 1012.8
20260510011954 18 99 0.0 0.0 0.00 0.00 0.00 98 1012.6
20260510011449 18 101 0.0 0.0 0.00 0.00 0.00 97 1012.5
20260510010946 18 100 0.0 0.0 0.00 0.00 0.00 97 1012.7
20260510010443 18 101 0.0 0.0 0.00 0.00 0.00 97 1012.8
20260510005940 19 100 0.0 0.0 0.00 0.00 0.00 97 1012.2
20260510005436 19 100 0.0 0.0 0.00 0.00 0.00 97 1012.3
20260510004933 19 100 0.0 0.0 0.00 0.00 0.00 97 1012.2
20260510004430 20 100 0.0 0.0 0.00 0.00 0.00 97 1012.2
20260510003929 20 100 0.0 0.0 0.00 0.00 0.00 97 1012.2
20260510003425 20 100 0.0 0.0 0.00 0.00 0.00 97 1012.0
20260510002924 20 100 0.0 0.0 0.00 0.00 0.00 97 1012.2
20260510002422 20 100 0.0 0.0 0.00 0.00 0.00 96 1011.9
20260510001918 20 100 0.0 0.0 0.00 0.00 0.00 96 1012.2
20260510001416 20 100 0.0 0.0 0.00 0.00 0.00 95 1012.1
20260510000913 20 100 0.0 0.0 0.00 0.00 0.00 94 1012.0
20260510000411 21 100 0.0 0.0 0.00 0.00 0.00 94 1012.0
20260509235905 21 100 0.0 0.0 0.00 0.00 0.00 93 1012.0
20260509235403 21 100 0.0 0.0 0.00 0.00 0.00 92 1011.8
20260509234858 21 100 0.0 0.0 0.00 0.00 0.00 92 1011.8
20260509234356 21 93 0.0 0.0 0.00 0.00 0.00 92 1011.6
20260509233854 21 92 0.0 0.0 0.00 0.00 0.00 91 1011.6
20260509233351 21 112 0.0 0.0 0.00 0.00 0.00 90 1011.7
20260509232846 21 113 0.0 0.0 0.00 0.00 0.00 89 1011.6
20260509232345 22 112 0.0 0.0 0.00 0.00 0.00 88 1011.6
20260509231841 22 112 0.0 0.0 0.00 0.00 0.00 87 1011.6
20260509231338 22 112 0.0 0.0 0.00 0.00 0.00 87 1011.7
20260509230836 22 112 0.0 0.0 0.00 0.00 0.00 84 1011.6
20260509230332 22 112 0.0 0.0 0.00 0.00 0.00 83 1011.4
20260509225827 22 112 0.0 0.0 0.00 0.00 0.00 83 1011.7
20260509225325 22 113 0.0 0.0 0.00 0.00 0.00 83 1011.7
20260509224821 23 103 0.0 0.0 0.00 0.00 0.00 81 1011.5
20260509224317 23 129 0.0 0.0 0.00 0.00 0.00 81 1011.5
20260509223813 23 129 0.0 0.0 0.00 0.00 0.00 79 1011.5
20260509223310 23 129 0.0 0.0 0.00 0.00 0.00 76 1011.4
20260509222807 23 122 0.0 0.0 0.00 0.00 0.00 77 1011.7
20260509222306 23 122 0.0 0.0 0.00 0.00 0.00 78 1011.4
20260509221758 23 122 0.0 0.0 0.00 0.00 0.00 77 1011.7
20260509221256 23 134 0.0 0.0 0.00 0.00 0.00 73 1011.4
20260509220751 23 149 0.0 0.0 0.00 0.00 0.00 76 1011.4
20260509220248 23 271 0.0 0.0 0.00 0.00 0.00 77 1011.0
20260509215743 23 271 0.0 0.0 0.00 0.00 0.00 74 1011.4
20260509215240 23 149 0.0 0.0 0.00 0.00 0.00 77 1011.2
20260509214737 23 149 0.0 0.0 0.00 0.00 0.00 73 1011.2
20260509214234 23 255 0.0 0.0 0.00 0.00 0.00 73 1011.2
20260509213731 23 255 0.0 0.0 0.00 0.00 0.00 74 1011.1